Location: Asheville, NC
(35.6000°N, 82.5500°W)
Time: 00:10:03
(UTC-04:00)

Vanguard 3 - Pass Details

Date: 11 February 2018
Orbit: 508 x 3264 km, 33.4° (Epoch: 21 May)

Event Time Altitude Azimuth Distance (km) Brightness Sun altitude
Rises 17:25:20 0° 219° (SW) 2,632 11.0 7.4°
Reaches altitude 10° 17:27:56 10° 200° (SSW) 1,702 9.6 6.9°
Maximum altitude 17:30:37 19° 152° (SSE) 1,268 8.2 6.4°
Drops below altitude 10° 17:33:34 10° 105° (ESE) 1,888 8.6 5.8°
Sets 17:36:40 0° 87° (E) 3,041 9.5 5.2°
